When you browse on this site, cookies collect data to enhance your experience and personalize the content and advertising you see.
Visit our Privacy Policy to learn more. By continuing to use the site, you agree to this use of cookies and data.
  • In Schweiz
  • Länderverzeichnis
  • Für 7 Tage
  • Wassertemperatur
  • Satellitenkarten
  • Wetterkarte
  • Widgets
  • user-avatar
    Anmelden

    Stündliche Wetter Adelaide

    Heute, 23 März, Samstag

    Zeit Temperatur Niederschläge Wind Luftdruck Luftfeuchtigkeit
    00:00 +25°C° 0 mm 2 m/S 753 mmHg 63%
    01:00 +25°C° 0 mm 2 m/S 753 mmHg 65%
    02:00 +24°C° 0 mm 2 m/S 752 mmHg 68%
    03:00 +23°C° 0 mm 1 m/S 752 mmHg 76%
    04:00 +22°C° 0 mm 1 m/S 752 mmHg 78%
    05:00 +21°C° 0 mm 2 m/S 753 mmHg 80%
    06:00 +21°C° 0 mm 2 m/S 753 mmHg 82%
    07:00 +22°C° 0 mm 3 m/S 753 mmHg 75%
    08:00 +24°C° 0 mm 3 m/S 753 mmHg 68%
    09:00 +25°C° 0 mm 3 m/S 754 mmHg 65%
    10:00 +25°C° 0 mm 3 m/S 754 mmHg 60%
    11:00 +26°C° 0 mm 3 m/S 754 mmHg 56%
    12:00 +27°C° 0 mm 4 m/S 754 mmHg 51%
    13:00 +27°C° 0 mm 4 m/S 754 mmHg 51%
    14:00 +27°C° 0 mm 4 m/S 754 mmHg 51%
    15:00 +26°C° 0 mm 2 m/S 754 mmHg 55%
    16:00 +25°C° 0 mm 2 m/S 754 mmHg 58%
    17:00 +24°C° 0 mm 2 m/S 754 mmHg 61%
    18:00 +23°C° 0 mm 2 m/S 755 mmHg 63%
    19:00 +23°C° 0 mm 2 m/S 755 mmHg 67%
    20:00 +21°C° 0 mm 2 m/S 755 mmHg 71%
    21:00 +22°C° 0 mm 1 m/S 755 mmHg 75%
    22:00 +22°C° 0 mm 1 m/S 755 mmHg 77%
    23:00 +21°C° 0 mm 1 m/S 755 mmHg 80%

    Morgen, 24 März, Sonntag

    Zeit Temperatur Niederschläge Wind Luftdruck Luftfeuchtigkeit
    00:00 +21°C° 0 mm 1 m/S 755 mmHg 83%
    01:00 +21°C° 0 mm 1 m/S 754 mmHg 84%
    02:00 +21°C° 0 mm 1 m/S 754 mmHg 86%
    03:00 +18°C° 0 mm 0 m/S 754 mmHg 88%
    04:00 +18°C° 0 mm 0 m/S 754 mmHg 88%
    05:00 +18°C° 0 mm 0 m/S 753 mmHg 89%
    06:00 +18°C° 0 mm 0 m/S 753 mmHg 89%
    07:00 +21°C° 0 mm 1 m/S 753 mmHg 81%
    08:00 +23°C° 0 mm 1 m/S 753 mmHg 72%
    09:00 +25°C° 0 mm 2 m/S 753 mmHg 63%
    10:00 +26°C° 0 mm 3 m/S 752 mmHg 60%
    11:00 +27°C° 0 mm 4 m/S 752 mmHg 56%
    12:00 +28°C° 0 mm 5 m/S 751 mmHg 53%
    13:00 +27°C° 0 mm 5 m/S 751 mmHg 55%
    14:00 +26°C° 0 mm 6 m/S 750 mmHg 57%
    15:00 +26°C° 0 mm 6 m/S 750 mmHg 59%
    16:00 +24°C° 0.1 mm 7 m/S 750 mmHg 61%
    17:00 +23°C° 0.1 mm 7 m/S 750 mmHg 62%
    18:00 +22°C° 0.1 mm 8 m/S 750 mmHg 64%
    19:00 +22°C° 0 mm 8 m/S 751 mmHg 64%
    20:00 +21°C° 0 mm 8 m/S 751 mmHg 65%
    21:00 +19°C° 0 mm 9 m/S 752 mmHg 65%
    22:00 +19°C° 0.1 mm 9 m/S 752 mmHg 64%
    23:00 +18°C° 0.1 mm 9 m/S 752 mmHg 62%

    übermorgen, 25 März, Montag

    Zeit Temperatur Niederschläge Wind Luftdruck Luftfeuchtigkeit
    00:00 +17°C° 0.1 mm 8 m/S 753 mmHg 60%
    01:00 +17°C° 0.1 mm 8 m/S 753 mmHg 60%
    02:00 +16°C° 0.1 mm 8 m/S 753 mmHg 61%
    03:00 +16°C° 0.1 mm 7 m/S 753 mmHg 61%
    04:00 +16°C° 0.1 mm 7 m/S 754 mmHg 60%
    05:00 +15°C° 0.1 mm 7 m/S 754 mmHg 60%
    06:00 +15°C° 0.1 mm 7 m/S 755 mmHg 59%
    07:00 +15°C° 0.1 mm 7 m/S 756 mmHg 57%
    08:00 +16°C° 0.1 mm 7 m/S 756 mmHg 56%
    09:00 +16°C° 0.1 mm 7 m/S 757 mmHg 55%
    10:00 +16°C° 0.1 mm 7 m/S 757 mmHg 52%
    11:00 +17°C° 0.1 mm 7 m/S 758 mmHg 50%
    12:00 +17°C° 0.1 mm 7 m/S 758 mmHg 47%
    13:00 +17°C° 0 mm 6 m/S 758 mmHg 46%
    14:00 +17°C° 0 mm 6 m/S 758 mmHg 44%
    15:00 +17°C° 0 mm 6 m/S 758 mmHg 43%
    16:00 +16°C° 0 mm 6 m/S 759 mmHg 46%
    17:00 +16°C° 0 mm 5 m/S 759 mmHg 49%
    18:00 +15°C° 0 mm 5 m/S 760 mmHg 52%
    19:00 +14°C° 0 mm 4 m/S 761 mmHg 55%
    20:00 +14°C° 0 mm 3 m/S 762 mmHg 57%
    21:00 +13°C° 0 mm 3 m/S 762 mmHg 59%
    22:00 +13°C° 0 mm 3 m/S 763 mmHg 60%
    23:00 +13°C° 0 mm 3 m/S 763 mmHg 61%

    26 März, Dienstag

    Zeit Temperatur Niederschläge Wind Luftdruck Luftfeuchtigkeit
    00:00 +13°C° 0 mm 3 m/S 763 mmHg 61%
    01:00 +13°C° 0 mm 3 m/S 763 mmHg 62%
    02:00 +13°C° 0 mm 3 m/S 763 mmHg 63%
    03:00 +13°C° 0 mm 3 m/S 763 mmHg 64%
    04:00 +13°C° 0 mm 3 m/S 763 mmHg 65%
    05:00 +14°C° 0 mm 2 m/S 764 mmHg 65%
    06:00 +14°C° 0 mm 2 m/S 764 mmHg 66%
    07:00 +14°C° 0 mm 3 m/S 764 mmHg 61%
    08:00 +17°C° 0 mm 3 m/S 765 mmHg 56%
    09:00 +18°C° 0 mm 3 m/S 765 mmHg 51%
    10:00 +18°C° 0 mm 3 m/S 765 mmHg 52%
    11:00 +18°C° 0 mm 3 m/S 765 mmHg 52%
    12:00 +18°C° 0 mm 3 m/S 765 mmHg 52%
    13:00 +19°C° 0 mm 3 m/S 765 mmHg 51%
    14:00 +19°C° 0 mm 3 m/S 764 mmHg 49%
    15:00 +20°C° 0 mm 3 m/S 764 mmHg 48%
    16:00 +19°C° 0 mm 3 m/S 764 mmHg 51%
    17:00 +18°C° 0 mm 3 m/S 764 mmHg 54%
    18:00 +17°C° 0 mm 3 m/S 764 mmHg 57%
    19:00 +17°C° 0 mm 3 m/S 765 mmHg 62%
    20:00 +16°C° 0 mm 3 m/S 765 mmHg 67%
    21:00 +14°C° 0 mm 3 m/S 766 mmHg 72%
    22:00 +14°C° 0 mm 3 m/S 765 mmHg 75%
    23:00 +15°C° 0 mm 2 m/S 765 mmHg 78%

    27 März, Mittwoch

    Zeit Temperatur Niederschläge Wind Luftdruck Luftfeuchtigkeit
    00:00 +15°C° 0 mm 2 m/S 765 mmHg 81%
    01:00 +14°C° 0 mm 2 m/S 765 mmHg 82%
    02:00 +14°C° 0 mm 2 m/S 765 mmHg 84%
    03:00 +14°C° 0 mm 2 m/S 764 mmHg 85%
    04:00 +14°C° 0 mm 2 m/S 765 mmHg 86%
    05:00 +14°C° 0 mm 2 m/S 765 mmHg 86%
    06:00 +14°C° 0 mm 2 m/S 765 mmHg 86%
    07:00 +16°C° 0 mm 2 m/S 765 mmHg 75%
    08:00 +19°C° 0 mm 1 m/S 765 mmHg 63%
    09:00 +21°C° 0 mm 1 m/S 765 mmHg 51%
    10:00 +23°C° 0 mm 1 m/S 765 mmHg 45%
    11:00 +25°C° 0 mm 1 m/S 764 mmHg 39%
    12:00 +27°C° 0 mm 1 m/S 763 mmHg 33%
    13:00 +26°C° 0 mm 2 m/S 763 mmHg 34%
    14:00 +26°C° 0 mm 2 m/S 762 mmHg 35%
    15:00 +26°C° 0 mm 3 m/S 761 mmHg 35%
    16:00 +25°C° 0 mm 3 m/S 761 mmHg 41%
    17:00 +22°C° 0 mm 3 m/S 761 mmHg 46%
    18:00 +21°C° 0 mm 3 m/S 761 mmHg 52%
    19:00 +20°C° 0 mm 3 m/S 761 mmHg 58%
    20:00 +19°C° 0 mm 3 m/S 761 mmHg 64%
    21:00 +18°C° 0 mm 3 m/S 761 mmHg 69%
    22:00 +17°C° 0 mm 3 m/S 761 mmHg 70%
    23:00 +17°C° 0 mm 2 m/S 760 mmHg 70%

    28 März, Donnerstag

    Zeit Temperatur Niederschläge Wind Luftdruck Luftfeuchtigkeit
    00:00 +17°C° 0 mm 2 m/S 760 mmHg 70%
    01:00 +17°C° 0 mm 2 m/S 759 mmHg 66%
    02:00 +17°C° 0 mm 2 m/S 759 mmHg 63%
    03:00 +17°C° 0 mm 2 m/S 759 mmHg 59%
    04:00 +17°C° 0 mm 2 m/S 759 mmHg 54%
    05:00 +17°C° 0 mm 2 m/S 759 mmHg 49%
    06:00 +17°C° 0 mm 2 m/S 759 mmHg 45%
    07:00 +19°C° 0 mm 2 m/S 759 mmHg 41%
    08:00 +21°C° 0 mm 3 m/S 759 mmHg 37%
    09:00 +24°C° 0 mm 3 m/S 759 mmHg 33%
    10:00 +25°C° 0 mm 3 m/S 759 mmHg 33%
    11:00 +26°C° 0 mm 4 m/S 758 mmHg 33%
    12:00 +27°C° 0 mm 4 m/S 758 mmHg 33%
    13:00 +27°C° 0 mm 4 m/S 757 mmHg 34%
    14:00 +27°C° 0 mm 4 m/S 757 mmHg 35%
    15:00 +26°C° 0 mm 4 m/S 757 mmHg 36%
    16:00 +25°C° 0 mm 4 m/S 757 mmHg 43%
    17:00 +22°C° 0 mm 3 m/S 757 mmHg 51%
    18:00 +21°C° 0 mm 3 m/S 757 mmHg 58%
    19:00 +20°C° 0 mm 3 m/S 758 mmHg 65%
    20:00 +19°C° 0 mm 3 m/S 758 mmHg 71%
    21:00 +19°C° 0 mm 3 m/S 758 mmHg 78%
    22:00 +18°C° 0 mm 3 m/S 758 mmHg 81%
    23:00 +18°C° 0 mm 3 m/S 758 mmHg 84%
    Mehr zeigen